#timestamp,LO_Frequency,Hit,StdDev 
1675594815.5,286046995.1,N
1675594835.4,286046992.5,N
1675594855.2,286046989.3,N
1675594875.0,286046989.0,N
1675594876.0,286046989.0,N
1675594895.8,286046990.9,N
1675594915.6,286046994.2,N
1675594935.5,286046994.7,N
1675594955.3,286046990.5,N
1675594975.1,286046994.5,N
1675594995.9,286046990.6,N
1675595015.7,286046991.4,N
1675595035.5,286046993.0,N
1675595055.4,286046990.4,N
1675595075.2,286046989.1,N
1675595095.1,286046992.7,N
1675595096.0,286046992.7,N
1675595115.8,286046989.2,N
1675595135.6,286046985.9,N
1675595155.5,286046982.1,Y
1675595175.3,286047002.1,P
1675595195.1,286047002.3,N
1675595215.9,286046997.6,N
1675595235.7,286046996.9,N
1675595255.6,286047001.1,N
1675595275.4,286047003.1,N
1675595295.2,286047012.3,Y
1675595315.1,286047003.2,P
1675595316.0,286047003.2,N
1675595335.8,286047012.1,P
1675595355.7,286047018.0,Y
1675595375.5,286047018.6,P
1675595395.3,286047014.5,N
1675595415.2,286047019.7,P
1675595435.9,286047023.4,Y
1675595455.7,286047005.2,P
1675595475.6,286047002.5,N
1675595495.4,286047005.4,N
1675595515.2,286047002.6,N
1675595535.1,286046998.6,N
1675595536.0,286046998.6,N
1675595555.8,286046995.0,N
1675595575.7,286046989.0,N
1675595595.5,286046982.1,N
1675595615.3,286046983.7,N
1675595635.2,286046985.1,N
1675595655.0,286046978.6,N
1675595655.9,286046978.6,N
1675595675.7,286046973.8,N
1675595695.6,286046970.5,N
1675595715.4,286046968.6,N
1675595735.3,286046964.7,N
1675595755.1,286046970.3,N
1675595756.0,286046970.3,N
1675595775.8,286046968.6,N
1675595795.7,286046967.9,N
1675595815.5,286046966.7,N
1675595835.4,286046968.7,N
1675595855.2,286046966.3,N
1675595875.0,286046967.2,N
1675595875.9,286046967.2,N
1675595895.8,286046964.9,N
1675595915.6,286046967.1,N
1675595935.5,286046967.0,N
1675595955.3,286046972.2,N
1675595975.1,286046978.8,N
1675595995.9,286046978.0,N
1675596015.7,286046988.0,N
1675596035.5,286046984.1,N
1675596055.4,286046976.5,N
1675596075.2,286046973.1,N
1675596095.1,286046972.9,Y
1675596096.0,286046972.9,P
1675596115.8,286046998.5,N
1675596135.6,286047001.2,N
1675596155.5,286046996.9,N
1675596175.3,286046991.9,N
1675596195.1,286046986.9,N
1675596215.9,286046990.9,N
1675596235.7,286046991.2,N
1675596255.6,286046987.3,N
1675596275.4,286046983.7,N
1675596295.2,286046988.1,N
1675596315.1,286046991.6,N
1675596316.0,286046991.6,N
1675596335.8,286046997.2,N
1675596355.6,286047001.0,N
1675596375.5,286047003.6,N
1675596395.3,286047003.6,N
1675596415.1,286046998.5,N
1675596435.9,286046995.4,N
1675596455.7,286046989.3,N
1675596475.6,286046985.8,N
1675596495.4,286046988.8,N
1675596515.2,286046989.6,N
1675596535.1,286046992.5,N
1675596536.0,286046992.5,N
1675596555.8,286046994.2,N
1675596575.6,286046996.3,N
1675596595.5,286047001.4,N
1675596615.3,286046999.0,N
1675596635.2,286046997.4,N
1675596655.9,286046994.3,N
1675596675.7,286046991.5,N
1675596695.6,286046992.7,N
1675596715.4,286046993.0,N
1675596735.2,286046994.0,N
1675596755.1,286046999.8,N
1675596756.0,286046999.8,N
1675596775.8,286047008.1,N
1675596795.7,286047008.9,N
1675596815.5,286047003.4,N
1675596835.3,286047001.8,N
1675596855.2,286047002.2,N
1675596875.0,286046999.2,N
1675596875.9,286046999.2,N
1675596895.7,286047001.8,N
1675596915.6,286047002.2,N
1675596935.4,286047002.4,N
1675596955.3,286047005.1,N
1675596975.1,286047014.1,N
1675596976.0,286047014.1,N
1675596995.8,286047012.7,N
1675597015.7,286047015.9,N
1675597035.5,286047018.5,N
1675597055.3,286047012.2,N
1675597075.2,286047005.6,N
1675597095.0,286047011.7,N
1675597095.9,286047011.7,N
1675597115.8,286047002.5,N
1675597135.6,286046998.9,N
1675597155.4,286046997.4,N
1675597175.3,286046996.5,N
1675597195.1,286046995.3,N
1675597215.8,286046994.7,N
1675597235.7,286046992.4,N
1675597255.5,286046991.7,N
1675597275.4,286046991.8,N
1675597295.2,286046990.0,N
1675597315.0,286046989.9,N
1675597315.9,286046989.9,N
1675597335.8,286046998.8,N
1675597355.6,286046995.1,N
1675597375.4,286047000.3,N
1675597395.3,286046996.6,N
1675597415.1,286047002.8,N
1675597435.9,286047010.2,N
1675597455.7,286047016.4,N
1675597475.5,286047021.5,N
1675597495.4,286047020.7,N
1675597515.2,286047021.5,N
1675597535.0,286047025.8,N
1675597535.9,286047025.8,N
1675597555.8,286047034.3,N
1675597575.6,286047039.2,Y
1675597595.5,286047028.9,P
1675597615.3,286047030.9,N
1675597635.1,286047025.0,N
1675597685.9,286047011.0,E
1675597695.8,286047003.7,N
1675597715.7,286046995.7,P
1675597735.5,286046988.6,N
1675597755.3,286046992.2,N
1675597775.2,286046994.7,N
1675597795.0,286046988.3,N
1675597795.9,286046988.3,N
1675597815.7,286046990.2,N
1675597835.6,286046983.8,Y
1675597855.4,286046990.2,P
1675597875.3,286046987.3,P
1675597895.1,286046983.2,P
1675597896.0,286046983.2,Y
1675597915.8,286046991.4,P
1675597935.7,286046990.5,P
1675597955.5,286046985.7,P
1675597975.4,286046985.4,Y
1675597995.2,286046997.7,P
1675598015.0,286046993.6,N
1675598015.9,286046993.6,N
1675598035.8,286046994.9,N
1675598055.6,286046992.7,N
1675598075.4,286046987.8,Y
1675598095.3,286046991.1,P
1675598115.1,286046996.1,P
1675598135.9,286046997.7,N
1675598155.7,286046994.1,N
1675598175.5,286046990.7,Y
1675598195.4,286046993.5,P
1675598215.2,286046990.4,P
1675598235.0,286046990.4,P
1675598235.9,286046990.4,Y
1675598255.8,286047002.7,P
1675598275.6,286047002.2,N
1675598295.5,286047003.6,N
1675598315.3,286047005.6,N
1675598335.1,286047002.6,N
1675598355.9,286046998.2,N
1675598375.7,286046998.6,N
1675598395.5,286047001.9,N
